Erzurum, Turkey

6:00 PM EEST on August 28, 2016 (GMT +0300)
Erzurum

Weather History for LTCE - November, 2012

Change the Weather History Date:

Monday, November 19, 2012

  Actual Average Record
Temperature  
Mean Temperature 34 °F -  
Max Temperature 44 °F 36 °F 59 °F (2010)
Min Temperature 23 °F 21 °F 6 °F (2001)
Degree Days  
Heating Degree Days 32    
Moisture  
Dew Point 29 °F    
Average Humidity 77    
Maximum Humidity 93    
Minimum Humidity 50    
Precipitation  
Precipitation 0.00 in 0.04 in - ()
Sea Level Pressure  
Sea Level Pressure 30.18 in    
Wind  
Wind Speed 7 mph ()    
Max Wind Speed 20 mph    
Max Gust Speed -    
Visibility 7.0 miles    
Events      
Averages and records for this station are not official NWS values.
T = Trace of Precipitation, MM = Missing Value Source: Averaged Metar Reports

Daily Weather History Graph

Daily Weather History Graph

Search for Another Location

Airport or City:

Trip Planner

Search our weather history database for the weather conditions in past years. The results will help you decide how hot, cold, wet, or windy it might be!

Date:

Astronomy

Nov. 19, 2012 Rise Set
Actual Time 6:05 AM EET 3:56 PM EET
Civil Twilight 5:35 AM EET 4:25 PM EET
Nautical Twilight 5:02 AM EET 4:58 PM EET
Astronomical Twilight 4:30 AM EET 5:30 PM EET
Moon 10:55 AM EET (11/19) 9:58 PM EET (11/19)
Length of Visible Light 10h 49m
Length of Day
9h 51m
Waxing Crescent, 37% of the Moon is Illuminated
Nov 19
Waxing Crescent
Nov 20
First Quarter
Nov 28
Full
Dec 6
Last Quarter
Dec 13
New

Hourly Weather History & Observations

Time (EET) Temp. Windchill Dew Point Humidity Pressure Visibility Wind Dir Wind Speed Gust Speed Precip Events Conditions
12:20 AM 30.2 °F 26.7 °F 26.6 °F 86% 30.18 in - NNE 3.5 mph - N/A   Clear
12:50 AM 33.8 °F 27.7 °F 26.6 °F 75% 30.18 in - ESE 6.9 mph - N/A   Clear
1:20 AM 33.8 °F 29.6 °F 30.2 °F 87% 30.18 in - East 4.6 mph - N/A   Clear
1:50 AM 28.4 °F 24.6 °F 24.8 °F 86% 30.18 in - North 3.5 mph - N/A   Clear
2:00 AM 29 °F - 25 °F 80%  in 12 mi North 3.5 mph - -  
2:20 AM 30.2 °F - 28.4 °F 93% 30.18 in - Variable 2.3 mph - N/A   Clear
2:50 AM 26.6 °F 22.6 °F 24.8 °F 93% 30.18 in - SSE 3.5 mph - N/A   Clear
3:20 AM 28.4 °F 22.2 °F 23.0 °F 80% 30.18 in - Variable 5.8 mph - N/A   Clear
3:50 AM 28.4 °F 24.6 °F 24.8 °F 86% 30.18 in - SSE 3.5 mph - N/A   Clear
4:20 AM 30.2 °F - 26.6 °F 86% 30.18 in - Variable 2.3 mph - N/A   Clear
4:50 AM 26.6 °F - 23.0 °F 86% 30.18 in - Variable 2.3 mph - N/A   Clear
5:20 AM 26.6 °F - 23.0 °F 86% 30.18 in - Variable 1.2 mph - N/A   Clear
5:50 AM 24.8 °F - 23.0 °F 93% 30.18 in - Variable 2.3 mph - N/A   Clear
6:20 AM 26.6 °F 21.2 °F 23.0 °F 86% 30.18 in - SSE 4.6 mph - N/A   Clear
6:50 AM 26.6 °F - 23.0 °F 86% 30.18 in - Variable 2.3 mph - N/A   Clear
7:20 AM 33.8 °F 26.4 °F 30.2 °F 87% 30.18 in - East 9.2 mph - N/A   Clear
7:50 AM 35.6 °F 27.1 °F 32.0 °F 87% 30.18 in - East 12.7 mph - N/A   Clear
8:00 AM 36 °F - 32 °F 78%  in 12 mi East 12.7 mph - -  
8:20 AM 37.4 °F 28.2 °F 32.0 °F 81% 30.18 in - East 16.1 mph - N/A   Clear
8:50 AM 37.4 °F 27.8 °F 32.0 °F 81% 30.18 in 6.2 mi East 17.3 mph - N/A   Partly Cloudy
9:20 AM 39.2 °F 30.2 °F 32.0 °F 75% 30.18 in 6.2 mi East 17.3 mph - N/A   Scattered Clouds
9:50 AM 39.2 °F 30.8 °F 30.2 °F 70% 30.18 in 6.2 mi East 15.0 mph - N/A   Scattered Clouds
10:20 AM 41.0 °F 33.1 °F 30.2 °F 65% 30.18 in 6.2 mi East 15.0 mph - N/A   Scattered Clouds
10:50 AM 41.0 °F 33.5 °F 28.4 °F 61% 30.18 in 6.2 mi East 13.8 mph - N/A   Scattered Clouds
11:20 AM 42.8 °F 35.1 °F 30.2 °F 61% 30.15 in 6.2 mi East 16.1 mph - N/A   Scattered Clouds
11:50 AM 42.8 °F 34.3 °F 30.2 °F 61% 30.15 in 6.2 mi East 19.6 mph - N/A   Scattered Clouds
12:20 PM 44.6 °F 37.2 °F 28.4 °F 53% 30.15 in 6.2 mi East 17.3 mph - N/A   Scattered Clouds
12:50 PM 42.8 °F 35.1 °F 28.4 °F 57% 30.15 in 6.2 mi East 16.1 mph - N/A   Scattered Clouds
1:20 PM 42.8 °F 35.4 °F 28.4 °F 57% 30.15 in 6.2 mi East 15.0 mph - N/A   Scattered Clouds
1:50 PM 42.8 °F 35.1 °F 28.4 °F 57% 30.15 in 6.2 mi East 16.1 mph - N/A   Scattered Clouds
2:00 PM 42 °F - 29 °F 50%  in 6 mi East 16.1 mph - -   Partly Cloudy
2:20 PM 42.8 °F 35.4 °F 30.2 °F 61% 30.15 in 6.2 mi East 15.0 mph - N/A   Scattered Clouds
2:50 PM 41.0 °F 33.5 °F 30.2 °F 65% 30.15 in 6.2 mi East 13.8 mph - N/A   Scattered Clouds
3:20 PM 41.0 °F 33.1 °F 30.2 °F 65% 30.15 in 6.2 mi East 15.0 mph - N/A   Scattered Clouds
3:50 PM 41.0 °F 34.3 °F 28.4 °F 61% 30.15 in 6.2 mi East 11.5 mph - N/A   Scattered Clouds
4:20 PM 39.2 °F 33.6 °F 28.4 °F 65% 30.15 in 6.2 mi East 8.1 mph - N/A   Scattered Clouds
4:50 PM 39.2 °F 33.6 °F 30.2 °F 70% 30.18 in 6.2 mi East 8.1 mph - N/A   Partly Cloudy
5:20 PM 37.4 °F 32.1 °F 30.2 °F 75% 30.18 in 6.2 mi East 6.9 mph - N/A   Partly Cloudy
5:50 PM 37.4 °F 32.1 °F 30.2 °F 75% 30.18 in - East 6.9 mph - N/A   Clear
6:20 PM 37.4 °F 30.8 °F 30.2 °F 75% 30.18 in - East 9.2 mph - N/A   Clear
6:50 PM 35.6 °F 29.2 °F 30.2 °F 81% 30.21 in - East 8.1 mph - N/A   Clear
7:20 PM 35.6 °F 31.7 °F 30.2 °F 81% 30.21 in - East 4.6 mph - N/A   Clear
7:50 PM 37.4 °F 30.8 °F 30.2 °F 75% 30.21 in - East 9.2 mph - N/A   Clear
8:00 PM 36 °F - 30 °F 71%  in 12 mi East 9.2 mph - -  
8:20 PM 33.8 °F 27.0 °F 30.2 °F 87% 30.21 in - NNE 8.1 mph - N/A   Clear
8:50 PM 35.6 °F 28.6 °F 30.2 °F 81% 30.21 in - East 9.2 mph - N/A   Clear
9:20 PM 33.8 °F 26.4 °F 30.2 °F 87% 30.21 in - ENE 9.2 mph - N/A   Clear
9:50 PM 33.8 °F 26.4 °F 30.2 °F 87% 30.21 in - ENE 9.2 mph - N/A   Clear
10:20 PM 33.8 °F 25.8 °F 30.2 °F 87% 30.21 in - ENE 10.4 mph - N/A   Clear
10:50 PM 35.6 °F 26.2 °F 30.2 °F 81% 30.21 in - ENE 15.0 mph - N/A   Clear
11:20 PM 32.0 °F 23.6 °F 30.2 °F 93% 30.21 in - NE 10.4 mph - N/A   Clear
11:50 PM 32.0 °F 25.6 °F 30.2 °F 93% 30.21 in - ENE 6.9 mph - N/A   Clear